Temperature
17 18 18 18 19 18 18 16 16 16 17 17 16 16 16 17 16 16 16 16 15 15 15 15 15 15 14 14 14 14 14 14 14 14 14 14 13 13 13 13 13 13 13 13
17 18 18 18 18 18 18 17 17 17 16 16 17 17 16 16 16 15 15 15 15 15 15 15 14 14 14 14 14 14 14 14 14 13 13 13 13 13 13 13 13 13 13 12
15 16 17 16 17 17 17 17 17 16 16 15 15 15 15 16 15 15 15 15 15 15 14 14 14 14 14 14 14 13 13 13 13 13 13 13 13 13 13 12 12 12 12 12
14 16 16 16 17 17 17 16 16 16 15 15 15 16 16 16 16 15 15 15 15 14 14 14 14 14 13 13 13 13 13 13 13 13 13 13 13 12 12 12 12 12 12 12
13 14 15 16 17 17 16 15 15 15 15 15 15 15 15 15 15 15 15 15 14 14 14 14 14 13 13 13 13 13 13 13 13 12 12 12 12 12 12 12 12 12 12 11
12 14 14 15 16 17 16 14 15 15 14 14 14 12 13 15 15 15 15 14 14 14 14 13 13 13 13 13 13 12 12 12 12 12 12 12 12 12 12 11 11 11 11 11
12 13 13 15 16 17 15 14 15 15 15 14 14 13 15 14 14 14 14 14 14 14 13 13 13 13 13 12 12 12 12 12 12 12 12 12 12 11 11 11 11 11 11 11
11 12 13 15 15 14 14 15 15 15 15 15 15 15 14 14 14 14 14 14 13 13 13 13 13 12 12 12 12 12 12 12 12 11 11 11 11 11 11 11 11 11 11 11
12 13 14 15 15 16 16 15 15 15 14 14 14 14 14 14 13 13 13 13 13 13 13 12 12 12 12 12 12 12 11 11 11 11 11 11 11 11 11 11 11 10 10 10
11 12 14 15 15 15 15 15 15 15 14 14 14 13 13 13 13 13 13 13 12 12 12 12 12 12 12 12 11 11 11 11 11 11 11 11 11 10 10 10 10 10 10 10
11 12 13 14 15 15 15 14 14 14 14 13 13 13 13 13 12 12 12 12 12 12 12 12 12 12 11 11 11 11 11 11 11 10 10 10 10 10 10 10 10 10 10 10
11 12 12 13 14 14 14 14 14 13 13 13 13 13 12 12 12 12 12 12 11 11 11 11 11 11 11 11 11 11 11 11 11 10 10 10 10 10 10 10 10 9 9 9
14 14 13 13 13 14 14 13 13 13 13 12 12 12 12 12 11 11 11 11 11 11 11 11 11 11 11 10 10 10 10 10 10 10 10 10 10 9 9 9 9 9 9 9
14 13 13 13 13 13 13 13 13 12 12 12 12 11 11 11 11 11 11 11 11 11 11 10 10 10 10 10 10 10 10 10 10 10 10 9 9 9 9 9 9 9 9 9
13 13 13 12 12 12 12 12 12 12 11 11 11 11 11 11 10 10 10 10 10 10 10 10 10 10 10 10 10 10 10 9 9 9 9 9 9 9 9 9 9 9 8 8
12 12 12 12 12 12 11 11 11 11 11 11 10 10 10 10 10 10 10 10 10 10 10 10 10 10 10 9 9 9 9 9 9 9 9 9 9 8 8 8 8 8 8 8
12 11 11 11 11 11 11 11 11 10 10 10 10 10 10 10 10 10 9 9 9 9 9 9 9 9 9 9 9 9 9 9 8 8 8 8 8 8 8 8 8 8 8 8
12 12 11 11 11 10 10 10 10 10 10 10 9 9 9 9 9 9 9 9 9 9 9 9 9 9 9 8 8 8 8 8 8 8 8 8 8 8 8 7 7 7 7 7
11 11 11 10 10 10 10 10 10 10 9 9 9 9 9 9 9 9 9 9 8 8 8 8 8 8 8 8 8 8 8 8 8 7 7 7 7 7 7 7 7 7 7 6
10 10 10 10 10 10 9 9 9 9 9 9 9 9 8 8 8 8 8 8 8 8 8 8 8 8 8 8 7 7 7 7 7 7 7 7 7 6 6 6 6 6 6 6
10 9 9 9 9 9 9 9 9 8 8 8 8 8 8 8 8 8 8 7 7 7 7 7 7 7 7 7 7 7 7 7 7 6 6 6 6 6 6 6 6 6 6 5
9 9 9 9 8 8 8 8 8 8 8 8 7 7 7 7 7 7 7 7 7 7 7 7 7 7 7 7 7 7 7 6 6 6 6 6 6 6 5 5 5 5 5 5
8 8 8 8 8 8 8 8 7 7 7 7 7 7 7 7 7 7 6 6 6 6 6 6 6 6 6 6 6 6 6 6 6 6 5 5 5 5 5 5 5 5 5 4
8 8 7 7 7 7 7 7 7 7 7 7 7 7 7 6 6 6 6 6 6 6 6 6 6 6 6 6 6 6 6 5 5 5 5 5 5 5 5 5 4 4 4 4
7 7 7 7 7 7 7 6 6 6 6 6 6 6 6 6 6 6 6 6 6 6 5 5 5 5 5 5 5 5 5 5 5 5 5 4 4 4 4 4 4 4 4 4
7 7 7 7 6 6 6 6 6 6 5 5 5 5 5 5 5 5 5 5 5 5 5 5 5 5 5 5 5 5 4 4 4 4 4 4 4 3 4 4 4 4 3 3
6 6 6 6 6 6 6 5 5 5 5 5 5 5 5 5 5 5 5 5 4 4 4 4 4 4 4 4 4 4 4 4 4 3 3 3 3 3 3 3 3 3 3 3
Wind_Speed
5 5 3 4 5 4 4 6 7 7 6 6 5 5 4 4 3 3 3 2 2 2 2 1 1 1 0 0 1 1 1 2 2 2 2 2 3 2 2 3 3 3 2 2
3 3 3 5 6 5 5 4 5 4 4 4 3 3 3 3 4 3 3 3 3 2 2 2 2 2 1 1 1 1 1 2 2 2 2 2 2 3 3 2 2 3 2 3
3 4 4 4 4 3 2 2 4 4 5 2 1 3 4 4 4 3 3 3 3 3 3 3 3 2 2 2 1 1 1 2 2 2 2 2 2 3 3 3 2 2 2 2
1 2 4 5 3 2 2 1 0 1 1 2 3 3 2 3 4 3 3 3 3 3 3 3 2 2 2 2 1 1 2 2 2 2 3 3 2 3 3 3 3 3 2 2
2 2 5 5 3 1 2 2 2 1 0 1 2 3 3 1 2 4 4 4 4 4 4 2 2 2 2 2 2 1 2 3 3 3 3 3 3 4 3 3 3 3 2 3
3 3 5 6 4 1 3 2 3 1 2 1 4 1 4 4 2 2 2 2 2 2 2 2 2 2 2 1 2 3 3 3 3 3 3 4 4 4 3 3 4 4 3 3
4 4 6 5 4 2 3 5 3 2 2 3 3 4 4 2 2 1 1 1 1 1 2 3 2 2 2 2 3 4 3 2 3 3 4 4 3 3 3 4 3 3 3 3
4 4 7 3 2 3 5 3 1 2 2 3 2 1 1 1 1 1 0 1 0 1 2 2 2 2 2 3 4 3 2 2 3 3 3 2 2 3 3 4 3 3 2 2
6 7 5 2 4 3 4 3 2 2 1 2 1 1 1 1 1 1 1 0 0 1 1 2 1 2 3 4 2 2 1 2 3 2 2 2 3 3 3 3 3 3 3 3
2 4 3 2 1 1 3 3 3 3 2 2 2 2 2 1 1 1 1 1 1 0 1 2 2 1 3 3 2 2 2 2 2 2 2 2 2 3 3 3 4 4 4 4
3 4 2 3 2 2 2 2 2 1 2 2 2 1 1 1 1 1 1 1 1 1 1 2 2 2 2 1 1 2 2 2 2 2 3 2 2 3 4 4 5 5 5 5
7 7 4 5 5 3 3 3 3 2 0 1 2 2 1 1 2 2 1 1 1 1 2 2 1 2 2 1 1 1 2 2 2 2 2 2 2 2 3 3 4 5 5 5
7 5 4 5 4 2 3 4 3 3 3 2 1 2 2 1 2 1 1 1 2 2 2 2 1 2 2 2 1 1 2 3 2 2 2 2 2 2 2 2 2 3 5 6
4 2 2 3 4 3 2 3 3 2 2 2 2 1 1 1 1 1 2 3 3 2 2 2 1 3 3 1 1 2 2 2 2 2 2 2 3 3 3 2 2 2 3 4
6 5 6 4 2 1 0 1 2 1 1 0 0 1 1 1 2 3 3 3 1 1 2 1 2 3 3 1 2 2 2 2 2 2 2 2 2 2 2 3 2 2 2 2
4 2 4 4 3 2 1 2 2 2 1 1 1 1 2 2 2 2 2 2 1 2 3 3 3 4 2 1 1 2 2 3 2 2 2 2 2 2 2 3 3 2 3 3
5 4 4 4 4 3 2 2 3 3 2 2 2 2 2 1 2 2 2 2 2 3 3 3 4 3 2 1 1 2 2 2 3 1 2 3 2 3 3 3 3 3 3 3
7 7 7 6 5 4 3 3 3 3 3 3 2 1 1 2 2 3 3 2 2 2 3 3 3 2 2 1 2 2 2 2 2 2 2 2 2 2 2 3 3 3 3 2
4 4 4 5 5 5 4 3 2 3 3 2 2 2 3 3 4 3 2 1 2 3 5 4 4 2 2 3 2 2 2 2 2 2 2 3 2 1 2 2 2 3 3 2
3 3 3 3 3 3 3 3 2 2 2 2 2 2 2 3 3 2 2 2 3 4 4 3 2 2 3 3 2 2 2 2 2 2 2 2 2 2 2 2 2 2 2 2
3 3 3 3 2 3 3 3 3 3 3 2 3 3 3 3 2 2 2 3 4 3 3 3 2 2 2 2 2 1 1 2 2 2 2 2 2 2 2 2 2 2 2 2
2 2 2 2 2 3 3 3 3 3 2 2 2 2 2 2 2 2 2 3 3 3 2 2 2 3 3 2 1 1 1 2 2 2 2 2 2 2 3 3 2 2 2 2
2 2 2 2 3 3 2 2 3 3 3 3 3 3 3 3 2 2 3 3 2 3 2 2 3 4 3 1 1 1 1 2 2 2 2 2 2 3 3 3 3 3 2 2
2 2 2 1 1 1 2 3 3 2 2 3 3 3 3 2 2 2 2 3 3 3 2 3 3 3 2 1 1 1 1 2 2 2 2 2 2 2 2 2 2 2 2 3
3 2 2 1 1 2 3 3 2 1 1 2 2 2 2 2 2 2 2 2 2 2 2 3 3 2 1 1 1 1 1 2 2 2 2 2 2 2 2 2 2 2 2 2
3 3 4 4 3 3 2 2 2 2 1 1 2 1 1 1 1 1 1 1 2 2 2 2 2 2 1 1 1 2 2 2 2 2 2 2 3 2 2 2 2 2 2 2
3 3 2 2 2 2 2 2 2 2 2 2 2 2 1 1 1 1 1 1 1 1 1 2 2 2 1 1 2 2 2 2 2 2 2 2 2 2 2 2 2 2 1 2
Wind_Direction
228 238 239 252 256 246 223 205 207 229 226 237 224 201 186 168 151 141 153 163 175 191 209 232 283 299 118 178 167 159 177 200 216 204 188 183 179 175 174 181 183 174 166 167
284 279 287 284 276 255 250 234 219 220 252 247 221 151 134 154 155 155 181 192 196 198 201 210 226 240 229 208 216 148 180 226 213 186 182 193 202 177 165 173 179 160 169 176
268 304 348 287 269 227 230 252 195 214 244 246 137 166 176 180 175 184 198 199 199 208 211 211 215 213 220 220 206 164 218 233 210 194 196 208 203 178 179 185 179 175 186 186
228 15 244 248 272 183 142 1 89 157 240 201 201 202 191 172 168 188 206 205 212 219 220 218 212 214 217 212 197 190 215 240 231 212 211 213 186 183 196 188 182 183 192 196
147 221 272 288 295 235 169 299 335 128 56 44 76 49 344 278 192 201 210 210 210 215 218 220 216 202 170 199 209 214 225 232 233 221 210 207 200 205 203 185 184 188 186 190
150 185 236 248 278 274 102 281 305 140 128 100 83 71 273 280 258 237 227 209 205 210 202 215 232 194 164 214 219 232 232 231 231 221 212 213 215 214 202 186 193 192 196 201
184 215 257 262 285 78 146 245 277 190 163 160 182 215 238 246 266 251 238 234 208 183 206 228 222 173 175 217 235 236 232 233 235 232 228 224 216 209 194 187 184 195 210 220
167 196 251 271 106 160 213 231 194 174 174 182 215 230 202 203 232 241 305 319 243 194 239 251 201 161 188 239 243 232 220 229 243 246 236 228 202 204 194 184 188 204 216 240
187 211 246 228 186 203 173 165 174 164 200 163 164 204 213 222 227 240 237 274 293 209 263 281 236 185 212 245 238 204 194 228 239 248 238 210 194 195 196 194 201 212 205 228
221 258 265 277 257 211 164 167 181 167 157 141 162 214 222 222 263 282 287 276 306 11 310 294 281 254 230 237 220 194 206 243 241 236 246 232 211 204 204 208 212 215 214 220
238 259 295 301 254 217 189 155 141 127 146 169 159 193 226 227 245 250 267 272 259 251 253 268 276 287 278 255 208 202 219 243 243 227 219 224 224 221 217 222 218 215 218 211
232 228 214 250 257 230 188 189 181 166 198 254 187 184 202 236 246 238 258 270 273 282 273 269 266 288 291 278 207 206 242 248 240 229 212 206 220 267 263 240 244 238 232 220
226 236 234 241 247 238 199 194 190 183 190 203 218 191 191 241 256 236 265 286 263 257 258 258 263 283 282 277 253 232 242 246 238 218 208 208 210 216 258 305 306 265 248 236
214 191 250 248 247 243 224 219 193 178 191 189 195 198 199 251 266 247 248 254 256 263 266 249 260 280 279 255 232 247 245 241 227 206 205 212 222 227 224 228 264 288 277 257
229 209 210 220 218 210 227 161 139 156 178 203 154 183 239 251 255 260 263 266 277 296 290 283 276 282 286 253 228 252 255 247 229 217 211 210 221 227 226 225 232 252 274 285
217 192 173 174 185 190 162 146 162 196 199 211 229 248 258 256 257 271 282 268 250 269 281 283 279 281 281 246 246 267 264 259 242 221 216 219 220 224 227 229 236 237 242 246
181 203 202 202 206 205 200 196 202 207 211 218 235 245 258 294 309 299 289 273 252 254 264 270 279 287 280 243 234 255 266 262 262 253 232 226 224 230 228 228 232 239 246 243
199 206 202 197 195 200 216 212 211 214 214 225 227 226 245 249 255 263 265 267 278 290 290 283 288 288 283 265 244 243 243 242 239 234 237 233 233 231 230 233 236 241 252 253
189 192 202 202 197 195 200 216 233 228 219 208 211 229 242 244 247 252 256 254 268 283 287 288 293 287 286 290 278 258 249 245 246 248 241 247 247 244 242 245 250 247 237 233
176 180 188 193 192 196 207 220 222 222 228 216 218 233 255 262 257 251 245 246 250 256 265 273 272 275 276 283 283 258 249 239 237 248 246 233 227 230 245 249 250 259 261 253
153 168 174 172 182 209 218 219 210 222 239 223 214 226 240 254 254 244 239 266 279 280 281 285 277 274 272 288 282 255 243 242 240 240 240 243 245 243 246 250 252 255 259 268
156 165 173 170 174 223 237 225 217 219 227 235 233 226 232 261 273 271 251 245 262 276 277 273 268 280 287 290 270 252 249 249 249 243 238 240 239 240 242 240 244 253 256 260
172 177 183 187 194 221 244 241 228 220 217 222 225 222 220 233 234 237 274 282 272 276 276 271 277 283 282 278 265 257 254 255 253 249 248 244 245 246 244 237 238 241 247 258
184 189 209 219 178 187 239 254 245 233 222 228 231 226 220 232 263 261 254 277 288 289 278 279 286 287 289 283 261 257 260 260 255 252 257 261 264 260 249 238 237 243 244 244
202 209 212 210 217 238 241 241 240 245 243 260 265 263 245 220 229 259 272 273 289 307 309 310 316 311 308 284 262 258 261 263 262 257 255 261 266 259 251 245 242 245 245 247
213 220 225 223 220 228 227 216 225 231 221 247 280 279 278 274 253 253 258 272 284 296 300 306 308 303 297 272 267 264 264 278 281 277 270 269 263 255 254 254 254 253 254 257
212 216 212 221 230 217 208 208 219 228 220 216 241 256 255 271 288 290 295 303 296 295 296 298 285 269 271 276 283 284 281 274 267 270 279 273 266 262 259 256 261 266 270 271
Height
1524 1521 1521 1521 1520 1519 1523 1527 1532 1527 1524 1519 1516 1515 1514 1514 1515 1516 1516 1516 1516 1515 1515 1515 1515 1514 1515 1515 1515 1516 1516 1516 1516 1517 1518 1518 1518 1519 1519 1519 1519 1519 1519 1519
1524 1519 1520 1520 1517 1517 1517 1518 1520 1520 1520 1514 1513 1513 1513 1514 1514 1514 1514 1514 1514 1514 1514 1513 1513 1513 1513 1513 1513 1513 1513 1514 1514 1514 1515 1515 1516 1516 1516 1517 1517 1517 1517 1517
1532 1524 1522 1526 1518 1516 1517 1515 1516 1520 1518 1513 1513 1512 1512 1512 1512 1512 1512 1512 1512 1512 1512 1511 1511 1511 1510 1511 1511 1510 1510 1510 1511 1511 1512 1512 1513 1513 1513 1514 1514 1514 1515 1515
1534 1530 1535 1524 1512 1511 1513 1514 1513 1513 1512 1511 1511 1510 1510 1510 1510 1510 1510 1510 1510 1510 1509 1509 1509 1509 1509 1508 1508 1508 1507 1507 1508 1508 1509 1509 1510 1510 1510 1511 1511 1511 1512 1512
1537 1537 1531 1519 1512 1511 1513 1516 1512 1512 1511 1510 1510 1510 1510 1510 1509 1509 1508 1508 1508 1508 1507 1507 1507 1506 1506 1506 1505 1505 1504 1504 1505 1505 1505 1506 1506 1507 1507 1508 1508 1509 1509 1510
1534 1535 1535 1521 1510 1507 1511 1518 1512 1510 1510 1510 1509 1514 1511 1509 1508 1507 1507 1506 1506 1505 1505 1504 1504 1503 1503 1502 1502 1502 1502 1502 1502 1502 1502 1502 1503 1503 1504 1504 1505 1506 1506 1507
1532 1534 1526 1513 1508 1508 1521 1519 1510 1509 1508 1509 1509 1510 1509 1507 1506 1506 1505 1505 1504 1503 1502 1501 1500 1500 1499 1499 1499 1499 1499 1499 1499 1499 1499 1499 1500 1500 1501 1501 1502 1502 1503 1504
1530 1533 1527 1509 1508 1512 1512 1509 1508 1507 1507 1507 1506 1506 1506 1505 1504 1504 1503 1502 1502 1501 1500 1499 1498 1497 1497 1496 1496 1496 1496 1496 1496 1496 1496 1496 1496 1497 1497 1498 1498 1499 1499 1500
1519 1518 1509 1506 1506 1506 1506 1506 1506 1505 1505 1505 1505 1504 1504 1503 1502 1501 1501 1500 1499 1498 1497 1497 1496 1495 1494 1494 1494 1494 1493 1493 1493 1493 1493 1493 1493 1493 1494 1494 1495 1495 1496 1496
1512 1509 1506 1505 1504 1504 1504 1504 1504 1504 1504 1503 1502 1502 1501 1501 1500 1499 1499 1498 1497 1496 1495 1494 1494 1493 1493 1492 1491 1491 1490 1490 1490 1489 1490 1490 1490 1490 1490 1491 1491 1492 1492 1492
1509 1506 1505 1503 1503 1503 1502 1502 1502 1502 1501 1501 1500 1499 1499 1498 1498 1497 1497 1496 1495 1494 1493 1492 1491 1491 1490 1490 1489 1488 1487 1487 1487 1486 1486 1486 1486 1486 1487 1487 1488 1488 1488 1489
1505 1502 1502 1501 1501 1500 1500 1499 1499 1498 1498 1498 1498 1497 1497 1496 1496 1496 1495 1493 1492 1491 1490 1489 1489 1488 1488 1487 1486 1485 1484 1484 1484 1483 1483 1483 1483 1483 1483 1484 1484 1485 1485 1485
1497 1497 1498 1498 1498 1498 1497 1496 1496 1496 1496 1495 1495 1495 1494 1494 1494 1493 1492 1491 1490 1489 1488 1487 1486 1485 1485 1484 1483 1482 1481 1481 1480 1480 1480 1480 1480 1480 1479 1480 1480 1481 1481 1481
1493 1494 1495 1494 1494 1495 1494 1494 1493 1493 1493 1493 1492 1492 1492 1492 1491 1490 1489 1489 1488 1486 1485 1484 1483 1483 1482 1481 1481 1479 1478 1477 1477 1477 1477 1477 1477 1477 1476 1476 1475 1475 1476 1477
1489 1490 1491 1491 1491 1492 1491 1491 1490 1490 1490 1490 1490 1489 1489 1488 1488 1487 1486 1486 1485 1483 1482 1481 1481 1480 1479 1479 1477 1476 1475 1474 1474 1473 1473 1473 1473 1473 1473 1472 1472 1472 1472 1472
1485 1486 1486 1487 1488 1488 1488 1488 1487 1487 1487 1487 1486 1486 1486 1485 1484 1484 1483 1482 1481 1480 1479 1478 1477 1477 1476 1475 1474 1473 1471 1471 1470 1470 1470 1469 1469 1469 1469 1468 1468 1467 1467 1468
1481 1482 1482 1483 1484 1484 1484 1485 1485 1484 1484 1484 1483 1483 1482 1482 1481 1480 1480 1479 1478 1477 1476 1475 1474 1473 1473 1472 1471 1469 1468 1467 1467 1466 1466 1466 1465 1465 1465 1464 1464 1463 1463 1463
1477 1478 1479 1479 1480 1480 1481 1481 1482 1481 1481 1481 1480 1480 1479 1478 1477 1476 1476 1475 1474 1473 1472 1471 1471 1470 1469 1468 1467 1466 1465 1464 1463 1463 1462 1462 1462 1461 1461 1460 1459 1459 1459 1459
1473 1474 1475 1476 1477 1477 1478 1478 1478 1478 1478 1477 1477 1476 1476 1475 1474 1473 1472 1471 1470 1468 1468 1467 1467 1466 1465 1464 1463 1462 1461 1460 1460 1459 1459 1458 1458 1457 1457 1456 1456 1455 1455 1454
1470 1471 1472 1473 1473 1474 1474 1474 1475 1475 1474 1474 1473 1473 1472 1471 1470 1469 1468 1466 1466 1465 1464 1464 1463 1462 1461 1460 1460 1459 1458 1457 1456 1456 1455 1455 1454 1453 1453 1452 1452 1451 1450 1450
1467 1468 1469 1469 1470 1470 1471 1471 1471 1471 1471 1470 1469 1469 1468 1467 1466 1465 1463 1462 1462 1462 1461 1460 1459 1458 1457 1456 1456 1455 1454 1453 1453 1452 1451 1451 1450 1450 1449 1448 1447 1447 1446 1445
1465 1465 1466 1466 1467 1467 1467 1468 1468 1467 1467 1466 1466 1465 1464 1463 1462 1461 1460 1460 1459 1458 1457 1456 1455 1455 1454 1453 1452 1451 1450 1449 1449 1448 1448 1447 1447 1446 1445 1444 1443 1442 1442 1441
1463 1463 1464 1464 1464 1463 1463 1464 1464 1463 1463 1462 1462 1461 1461 1460 1459 1458 1456 1456 1455 1454 1453 1452 1451 1450 1450 1449 1448 1447 1446 1445 1445 1444 1444 1443 1443 1442 1441 1440 1439 1438 1437 1437
1460 1461 1461 1461 1461 1460 1460 1460 1460 1459 1459 1458 1458 1458 1457 1456 1455 1455 1454 1453 1451 1450 1449 1448 1447 1446 1446 1445 1444 1443 1442 1441 1441 1440 1440 1439 1438 1437 1437 1436 1435 1434 1433 1433
1457 1458 1458 1458 1457 1457 1457 1456 1456 1455 1455 1454 1454 1454 1453 1453 1452 1451 1450 1449 1448 1447 1445 1444 1443 1443 1442 1441 1440 1439 1438 1438 1437 1436 1435 1435 1434 1433 1432 1432 1431 1430 1429 1429
1454 1454 1454 1454 1454 1454 1454 1453 1452 1452 1451 1450 1450 1450 1449 1449 1448 1447 1446 1445 1444 1443 1442 1441 1440 1439 1438 1437 1437 1436 1434 1434 1433 1432 1432 1431 1430 1429 1428 1428 1427 1426 1425 1425
1450 1450 1451 1450 1450 1450 1450 1449 1449 1448 1448 1447 1446 1446 1446 1445 1444 1444 1443 1442 1441 1440 1439 1438 1436 1436 1435 1434 1433 1432 1431 1430 1429 1429 1428 1427 1426 1425 1425 1424 1423 1422 1422 1421